FW7205 Weather Reports


time (UTC)temp
C
wind
direction
speed
KPH
gust
KPH
rain 1hr
cm
rain 24hr
cm
rain mn
cm
humidity
%
barometer
mb
20260505064559 20 200 0.0 4.8 0.00 0.00 0.00 85 1008.9
20260505063103 20 0 0.0 4.8 0.00 0.00 0.00 85 1008.8
20260505061619 20 0 0.0 4.8 0.00 0.00 0.00 84 1009.1
20260505060103 20 0 0.0 4.8 0.00 0.00 0.00 84 1008.6
20260505054625 21 192 0.0 4.8 0.00 0.00 0.00 83 1008.9
20260505053106 21 229 1.6 8.0 0.00 0.00 0.00 83 1008.9
20260505051558 21 122 1.6 8.0 0.00 0.00 0.00 82 1008.8
20260505041554 22 116 1.6 6.4 0.00 0.00 0.00 80 1009.2
20260505040059 22 208 1.6 9.7 0.00 0.00 0.00 79 1009.0
20260505034558 22 117 1.6 6.4 0.00 0.00 0.00 78 1009.0
20260505033056 22 252 1.6 8.0 0.00 0.00 0.00 77 1009.0
20260505031558 22 218 1.6 8.0 0.00 0.00 0.00 77 1009.0
20260505030105 22 0 1.6 8.0 0.00 0.00 0.00 77 1009.1
20260505024608 23 97 0.0 8.0 0.00 0.00 0.00 76 1008.9
20260505023055 23 119 0.0 6.4 0.00 0.00 0.00 76 1008.7
20260505021609 23 0 0.0 3.2 0.00 0.00 0.00 75 1008.7
20260505014603 23 0 0.0 4.8 0.00 0.00 0.00 73 1008.6
20260505013058 24 221 0.0 4.8 0.00 0.00 0.00 72 1008.5
20260505011557 24 0 0.0 4.8 0.00 0.00 0.00 72 1008.5
20260505010056 24 136 1.6 8.0 0.00 0.00 0.00 71 1008.4
20260505004552 25 0 3.2 8.0 0.00 0.00 0.00 70 1008.3
20260505003055 25 92 0.0 4.8 0.00 0.00 0.00 70 1008.5
20260505001552 25 0 1.6 6.4 0.00 0.00 0.00 69 1008.5
20260505000057 25 113 0.0 4.8 0.00 0.00 0.00 68 1008.5
20260504234555 25 199 1.6 9.7 0.00 0.00 0.00 68 1008.7
20260504233100 26 123 1.6 6.4 0.00 0.00 0.00 67 1008.7
20260504231557 26 142 1.6 8.0 0.00 0.00 0.00 66 1008.7
20260504230053 26 0 1.6 4.8 0.00 0.00 0.00 65 1008.9
20260504224552 26 290 0.0 6.4 0.00 0.00 0.00 64 1009.1
20260504223057 26 138 1.6 9.7 0.00 0.00 0.00 64 1009.4
20260504221604 26 176 1.6 6.4 0.00 0.00 0.00 63 1009.1
20260504220118 26 121 1.6 9.7 0.00 0.00 0.00 64 1009.4
20260504214555 26 0 1.6 8.0 0.00 0.00 0.00 63 1009.9
20260504213117 26 124 1.6 8.0 0.00 0.00 0.00 63 1009.8
20260504211556 27 123 1.6 6.4 0.00 0.00 0.00 61 1010.3
20260504210101 26 0 1.6 4.8 0.00 0.00 0.00 62 1010.5
20260504204604 26 105 1.6 9.7 0.00 0.00 0.00 61 1010.9
20260504203057 26 0 1.6 8.0 0.00 0.00 0.00 60 1011.0
20260504201603 27 277 1.6 4.8 0.00 0.00 0.00 59 1011.3
20260504200108 26 213 1.6 6.4 0.00 0.00 0.00 62 1011.5
20260504194555 26 140 1.6 9.7 0.00 0.00 0.00 62 1011.8
20260504193052 26 121 1.6 6.4 0.00 0.00 0.00 62 1012.2
20260504191551 26 0 1.6 11.3 0.00 0.00 0.00 60 1012.0
20260504190053 26 158 1.6 8.0 0.00 0.00 0.00 60 1012.1
20260504184559 26 89 1.6 8.0 0.00 0.00 0.00 60 1012.6
20260504183059 26 0 3.2 11.3 0.00 0.00 0.00 60 1012.6
20260504181554 25 230 1.6 8.0 0.00 0.00 0.00 61 1012.9
20260504180052 25 89 1.6 8.0 0.00 0.00 0.00 60 1013.0
20260504174556 25 0 1.6 9.7 0.00 0.00 0.00 61 1013.3
20260504173059 25 184 1.6 6.4 0.00 0.00 0.00 61 1013.3
20260504171558 25 234 1.6 9.7 0.00 0.00 0.00 61 1013.6
20260504100103 15 0 0.0 0.0 0.00 0.00 0.00 78 1014.5
20260504081556 16 0 0.0 0.0 0.00 0.00 0.00 76 1014.8